User: anonymous   Login
Location: Pian di Sc�
(43.6333°N, 11.5500°E)
Time: 12:30:19
(UTC+00:00)
Language:

Meteor 1-11 - Orbit

View from above orbital plane
View from above orbital plane
View from above satellite
View from above satellite

Ground track
Ground track

The orbit data is extracted from the following two-line orbital elements,

1  5917U 72022A   20293.84613734 -.00000134 +00000-0 -84719-4 0  9990
2  5917 081.2189 137.4315 0032935 041.7243 318.6430 14.08692442493753
Epoch (UTC): 19 October 2020 20:18:26
Eccentricity: 0.0032935
inclination: 81.2189°
perigee height: 840 km
apogee height: 888 km
right ascension of ascending node: 137.4315°
argument of perigee: 41.7243°
revolutions per day: 14.08692442
mean anomaly at epoch: 318.6430°
orbit number at epoch: 49375

The dashed part of the orbit path shows where the satellite is in the earth's shadow,  

DLR